Home   Weather   Corrientes   Past weeks
Flag for Argentina

Past Weather in Corrientes, Corrientes, Argentina — Yesterday and Last 2 Weeks

Now
64 °F

Light rain. Overcast.


Feels Like: 64 °F
Forecast: 75 / 65 °F
Wind: 8 mph from Southeast

Location: Resistencia Aero.

Current Time: Oct 19, 2019 at 6:55:29 am

Latest Report: Oct 19, 2019 at 6:00 am


Visibility: 4 mi

Pressure: 30.12 "Hg

Humidity: 83%

Dew Point: 59 °F

Location of CorrientesLocation

Past Weather in Corrientes — Graph

°F

Corrientes Temperature Yesterday

Maximum temperature yesterday: 70 °F (at 5:00 pm)
Minimum temperature yesterday: 63 °F (at 12:00 am)
Average temperature yesterday: 65 °F

High & Low Weather Summary for the Past Weeks

 TemperatureHumidityPressure
High102 °F (Oct 11, 4:00 pm)100% (Oct 4, 5:00 am)30.15 "Hg (Oct 4, 5:00 am)
Low52 °F (Oct 7, 5:00 am)25% (Oct 10, 3:00 pm)29.53 "Hg (Oct 12, 5:00 pm)
Average70 °F81%29.93 "Hg
* Reported Oct 4 5:00 am — Oct 19 5:00 am, Corrientes. Weather by CustomWeather, © 2019

Note: Actual official high and low records may vary slightly from our data, if they occured in-between our weather recording intervals... More about our weather records

Advertising

Corrientes Weather History for the Previous 24 Hours

Scroll right to see more
 ConditionsComfort  
Time TempWeatherWind HumidityBarometerVisibility
5:00 am
Sat, Oct 19
64 °FClear.8 mph83%30.09 "Hg10 mi
4:00 am64 °FClear.9 mph88%30.09 "Hg10 mi
3:00 am64 °FClear.7 mph94%30.09 "Hg10 mi
2:00 am64 °FClear.6 mph94%30.12 "Hg10 mi
1:00 am64 °FClear.5 mph94%30.09 "Hg10 mi
12:00 am66 °FClear.2 mph88%30.09 "Hg10 mi
11:00 pm
Fri, Oct 18
66 °FClear.7 mph88%30.09 "Hg10 mi
10:00 pm66 °FClear.6 mph88%30.07 "Hg10 mi
9:00 pm66 °FClear.5 mph88%30.04 "Hg10 mi
8:00 pm68 °FMostly cloudy.5 mph83%30.04 "HgN/A
7:00 pm68 °FPartly sunny.6 mph83%30.04 "HgN/A
6:00 pm68 °FOvercast.8 mph94%30.01 "HgN/A
5:00 pm70 °FOvercast.8 mph88%30.04 "HgN/A
4:00 pm68 °FOvercast.8 mph94%30.04 "HgN/A
3:00 pm66 °FOvercast.9 mph100%30.07 "HgN/A
2:00 pm68 °FOvercast.9 mph100%30.07 "HgN/A
1:00 pm66 °FLight rain. Overcast.7 mph100%30.07 "Hg5 mi
12:05 pm66 °FRain. Overcast.3 mph100%30.09 "Hg3 mi
12:00 pm66 °FDrizzle. Overcast.3 mph100%30.09 "Hg5 mi
11:00 am68 °FCloudy.7 mph94%30.09 "HgN/A
10:00 am66 °FCloudy.8 mph100%30.07 "HgN/A
9:00 am64 °FThunderstorms. More clouds than sun.8 mph100%30.07 "Hg5 mi
8:05 am64 °FThunderstorms. Partly sunny.7 mph100%30.04 "HgN/A
8:00 am64 °FSunny.7 mph100%30.04 "Hg10 mi
7:00 am63 °FThunderstorms. Partly sunny.6 mph100%30.01 "HgN/A
6:00 am63 °FThunderstorms. Mostly cloudy.6 mph100%30.01 "HgN/A
Weather by CustomWeather, © 2019

See weather overview